This is the latest recevied weather packets stored in our database for station/object IZ5MJO-13. If no packets are shown the sender has not sent any weather packets the latest 10 day(s).
| Time | Temp. | Humidity | Pressure | Rain* | Wind** | Luminosity | Snow |
|---|---|---|---|---|---|---|---|
| 1788422720 | 24.44° C | 62% | 1009.5 hPa | - | - | - | - |
| 1788421820 | 24.44° C | 62% | 1009.5 hPa | - | - | - | - |
| 1788420919 | 23.89° C | 62% | 1009.5 hPa | - | - | - | - |
| 1788420019 | 23.33° C | 65% | 1009.4 hPa | - | - | - | - |
| 1788419119 | 22.78° C | 66% | 1009.3 hPa | - | - | - | - |
| 1788418219 | 22.22° C | 67% | 1009.3 hPa | - | - | - | - |
| 1788417319 | 21.67° C | 69% | 1009.4 hPa | - | - | - | - |
| 1788416418 | 21.11° C | 69% | 1009.3 hPa | - | - | - | - |
| 1788415518 | 21.11° C | 68% | 1009.2 hPa | - | - | - | - |
| 1788414623 | 20.56° C | 70% | 1009.1 hPa | - | - | - | - |
| 1788413723 | 20° C | 67% | 1009 hPa | - | - | - | - |
| 1788412823 | 19.44° C | 67% | 1008.9 hPa | - | - | - | - |
| 1788411922 | 19.44° C | 70% | 1008.8 hPa | - | - | - | - |
| 1788411274 | 20° C | 69% | 1008.8 hPa | - | - | - | - |
| 1788411022 | 20° C | 68% | 1008.7 hPa | - | - | - | - |
| 1788410122 | 20° C | 70% | 1008.6 hPa | - | - | - | - |
| 1788409222 | 20° C | 70% | 1008.4 hPa | - | - | - | - |
| 1788408321 | 20° C | 70% | 1008.5 hPa | - | - | - | - |
| 1788408039 | 20.56° C | 65% | 1008.7 hPa | - | - | - | - |
| 1788408032 | 20.56° C | 68% | 1008.7 hPa | - | - | - | - |
| 1788408023 | 20.56° C | 66% | 1008.8 hPa | - | - | - | - |
| 1788408016 | 20.56° C | 67% | 1008.8 hPa | - | - | - | - |
| 1788407421 | 20° C | 70% | 1008.4 hPa | - | - | - | - |
| 1788406521 | 20° C | 70% | 1008.5 hPa | - | - | - | - |
| 1788405621 | 20° C | 68% | 1008.6 hPa | - | - | - | - |
* Rain since midnight (hover to see other rain measurements)
** Current wind speed in m/s (hover to see current wind gust speed)